Home   Weather   Overland Park   Past weeks

Flag for USA Past Weather in Overland Park, Kansas, USA — Yesterday and Last 2 Weeks

50 °F


Feels Like: 50 °F
Forecast: 47 / 70 °F
Wind: No wind

Location: Johnson County Executive Airport

Current Time: Oct 27, 2016 at 2:10:00 AM

Latest Report: Oct 27, 2016 at 1:53 AM

Visibility: 5 mi

Pressure: 30.19 "Hg

Humidity: 89%

Dew Point: 47 °F

Location of Overland ParkLocation

Past Weather in Overland Park — Graph


Overland Park Temperature Yesterday

Maximum temperature yesterday: 73 °F (at 4:53 PM)
Minimum temperature yesterday: 53 °F (at 11:53 PM)
Average temperature yesterday: 64 °F

High & Low Weather Summary for the Past Weeks

High85 °F (Oct 17, 3:53 PM)100% (Oct 14, 6:53 AM)30.35 "Hg (Oct 14, 6:53 AM)
Low38 °F (Oct 13, 6:53 AM)42% (Oct 20, 4:53 PM)29.39 "Hg (Oct 17, 4:53 PM)
Average61 °F72%30.03 "Hg
* Reported Oct 12 12:53 AM — Oct 27 12:53 AM, Overland Park, Weather by CustomWeather, © 2016

Note: Actual official high and low records may vary slightly from our data, if they occured in-between our weather recording intervals... More about our weather records


Overland Park Weather History for the Previous 24 Hours

Scroll right to see more
Time TempWeatherWind HumidityBarometerVisibility
12:53 AM
Thu, Oct 27
53 °FClear.5 mph86%30.18 "Hg7 mi
11:53 PM
Wed, Oct 26
53 °FClear.6 mph89%30.17 "Hg7 mi
11:02 PM55 °FPassing clouds.8 mph87%30.18 "Hg7 mi
9:53 PM56 °FFog.6 mph90%30.15 "Hg6 mi
8:53 PM58 °FClear.7 mph87%30.13 "Hg8 mi
7:53 PM61 °FClear.12 mph81%30.11 "Hg9 mi
6:53 PM66 °FClear.9 mph73%30.08 "Hg10 mi
5:53 PM70 °FSunny.10 mph66%30.03 "Hg10 mi
4:53 PM73 °FScattered clouds.12 mph62%30.02 "Hg10 mi
3:53 PM71 °FBroken clouds.10 mph68%30.01 "Hg10 mi
2:53 PM70 °FPartly sunny.9 mph73%30.01 "Hg10 mi
1:53 PM69 °FOvercast.15 mph73%30.02 "Hg10 mi
12:53 PM67 °FMore clouds than sun.9 mph85%30.03 "Hg10 mi
11:53 AM66 °FOvercast.12 mph87%30.03 "Hg10 mi
10:53 AM64 °FMostly cloudy.12 mph90%30.03 "Hg10 mi
9:53 AM63 °FScattered clouds.8 mph93%30.01 "Hg8 mi
8:53 AM62 °FFog.8 mph96%30.01 "Hg5 mi
7:53 AM62 °FOvercast.7 mph93%29.99 "Hg7 mi
6:53 AM62 °FOvercast.9 mph93%29.98 "Hg7 mi
5:53 AM62 °FLight rain. Fog.9 mph96%30.00 "Hg5 mi
4:53 AM62 °FThundershowers. Mostly cloudy.7 mph93%30.02 "Hg7 mi
3:53 AM63 °FThunderstorms. Passing clouds.8 mph84%30.00 "Hg9 mi
2:53 AM64 °FOvercast.10 mph81%30.02 "Hg10 mi
Weather by CustomWeather, © 2016

See weather overviewHow to use our weather pages